Weather History for Altus, OK

Change the Weather History Date:

Thursday, May 23, 2013

  Actual Average (KLTS) Record (KLTS)
Temperature  
Mean Temperature 78 °F -  
Max Temperature 91 °F 84 °F 109 °F (2000)
Min Temperature 65 °F 61 °F 57 °F (2001)
Cooling Degree Days 12    
Growing Degree Days 28 (Base 50)    
Moisture  
Dew Point 60 °F    
Average Humidity 59    
Maximum Humidity 80    
Minimum Humidity 27    
Precipitation  
Precipitation 0.00 in - - ()
Sea Level Pressure  
Sea Level Pressure 29.97 in    
Wind  
Wind Speed 16 mph (ESE)    
Max Wind Speed 26 mph    
Max Gust Speed 33 mph    
Visibility 10 miles    
Events      
Averages and records for this station are not official NWS values.
T = Trace of Precipitation, MM = Missing Value Source: NWS Daily Summary

Daily Weather History Graph

Daily Weather History Graph

Search for Another Location

Airport:

Trip Planner

Search our weather history database for the weather conditions in past years. The results will help you decide how hot, cold, wet, or windy it might be!

Date:

Astronomy

May. 23, 2013 Rise Set
Actual Time 6:29 AM CDT 8:39 PM CDT
Civil Twilight 6:00 AM CDT 9:08 PM CDT
Nautical Twilight 5:25 AM CDT 9:43 PM CDT
Astronomical Twilight 4:48 AM CDT 10:20 PM CDT
Moon 7:16 PM CDT (5/23) 5:10 AM CDT (5/23)
Length of Visible Light 15h 07m
Length of Day
14h 10m
Waxing Gibbous, 97% of the Moon is Illuminated
May 23
Waxing Gibbous
May 24
Full
May 31
Last Quarter
Jun 8
New
Jun 16
First Quarter

Hourly Weather History & Observations

Time (CDT) Temp. Heat Index Dew Point Humidity Pressure Visibility Wind Dir Wind Speed Gust Speed Precip Events Conditions
12:15 AM 70.9 °F - 53.6 °F 54% 29.89 in 10.0 mi ESE 13.8 mph - N/A   Clear
12:35 AM 70.2 °F - 53.6 °F 56% 29.90 in 10.0 mi ESE 13.8 mph - N/A   Clear
12:55 AM 69.8 °F - 53.4 °F 56% 29.90 in 10.0 mi ESE 13.8 mph - N/A   Clear
1:15 AM 69.8 °F - 53.8 °F 57% 29.90 in 10.0 mi ESE 13.8 mph - N/A   Clear
1:35 AM 69.1 °F - 54.1 °F 59% 29.91 in 10.0 mi ESE 13.8 mph - N/A   Clear
1:55 AM 68.5 °F - 54.5 °F 61% 29.90 in 10.0 mi ESE 12.7 mph - N/A   Clear
2:15 AM 68.5 °F - 54.5 °F 61% 29.90 in 10.0 mi ESE 12.7 mph - N/A   Clear
2:35 AM 68.2 °F - 54.9 °F 62% 29.90 in 10.0 mi ESE 13.8 mph - N/A   Clear
2:55 AM 67.5 °F - 55.4 °F 65% 29.90 in 10.0 mi ESE 15.0 mph - N/A   Clear
3:15 AM 67.1 °F - 55.6 °F 66% 29.89 in 10.0 mi ESE 13.8 mph - N/A   Clear
3:35 AM 67.3 °F - 56.5 °F 68% 29.90 in 10.0 mi ESE 12.7 mph - N/A   Clear
3:55 AM 68.0 °F - 57.4 °F 69% 29.90 in 10.0 mi ESE 12.7 mph - N/A   Clear
4:15 AM 67.8 °F - 57.6 °F 70% 29.90 in 10.0 mi ESE 11.5 mph - N/A   Clear
4:35 AM 67.3 °F - 57.7 °F 71% 29.91 in 10.0 mi ESE 12.7 mph - N/A   Clear
4:55 AM 67.1 °F - 58.1 °F 73% 29.91 in 10.0 mi ESE 12.7 mph - N/A   Clear
5:15 AM 66.6 °F - 58.1 °F 74% 29.91 in 10.0 mi ESE 12.7 mph - N/A   Clear
5:35 AM 65.8 °F - 58.1 °F 76% 29.91 in 10.0 mi ESE 13.8 mph - N/A   Clear
5:55 AM 65.5 °F - 58.3 °F 77% 29.91 in 10.0 mi ESE 12.7 mph - N/A   Clear
6:15 AM 65.3 °F - 58.5 °F 78% 29.91 in 10.0 mi ESE 10.4 mph - N/A   Clear
6:35 AM 65.3 °F - 59.0 °F 80% 29.92 in 10.0 mi ESE 9.2 mph - N/A   Clear
6:55 AM 65.5 °F - 59.2 °F 80% 29.93 in 10.0 mi ESE 12.7 mph - N/A   Clear
7:15 AM 66.2 °F - 59.9 °F 80% 29.94 in 10.0 mi ESE 11.5 mph - N/A   Clear
7:35 AM 67.3 °F - 60.4 °F 79% 29.94 in 10.0 mi East 10.4 mph - N/A   Clear
7:55 AM 68.7 °F - 61.0 °F 76% 29.94 in 10.0 mi ESE 11.5 mph - N/A   Clear
8:15 AM 69.8 °F - 61.7 °F 75% 29.94 in 10.0 mi ESE 13.8 mph - N/A   Clear
8:35 AM 71.1 °F - 62.1 °F 73% 29.95 in 10.0 mi ESE 12.7 mph - N/A   Clear
8:55 AM 72.9 °F - 63.0 °F 71% 29.97 in 10.0 mi East 18.4 mph 21.9 mph N/A   Clear
9:15 AM 74.1 °F - 63.7 °F 70% 29.98 in 10.0 mi ESE 18.4 mph - N/A   Clear
9:35 AM 75.6 °F - 64.4 °F 68% 29.99 in 10.0 mi East 21.9 mph - N/A   Clear
9:55 AM 76.5 °F - 64.9 °F 67% 30.00 in 10.0 mi ESE 21.9 mph 28.8 mph N/A   Clear
10:15 AM 76.1 °F - 65.3 °F 69% 30.00 in 10.0 mi ESE 21.9 mph 28.8 mph N/A   Scattered Clouds
10:35 AM 76.5 °F - 65.5 °F 69% 30.00 in 10.0 mi ESE 24.2 mph 28.8 mph N/A   Mostly Cloudy
10:55 AM 77.0 °F - 65.3 °F 67% 30.01 in 7.0 mi ESE 25.3 mph 29.9 mph N/A   Mostly Cloudy
11:15 AM 77.7 °F - 65.1 °F 65% 30.02 in 10.0 mi ESE 25.3 mph 33.4 mph N/A   Mostly Cloudy
11:35 AM 78.3 °F - 63.1 °F 60% 30.03 in 10.0 mi ESE 26.5 mph 32.2 mph N/A   Scattered Clouds
11:55 AM 80.4 °F 81.6 °F 62.6 °F 54% 30.04 in 10.0 mi ESE 26.5 mph 31.1 mph N/A   Scattered Clouds
12:15 PM 80.8 °F 81.6 °F 61.3 °F 51% 30.04 in 10.0 mi ESE 23.0 mph 29.9 mph N/A   Scattered Clouds
12:35 PM 82.6 °F 83.1 °F 61.3 °F 48% 30.04 in 10.0 mi SE 25.3 mph 31.1 mph N/A   Scattered Clouds
12:55 PM 84.0 °F 84.0 °F 59.9 °F 44% 30.03 in 10.0 mi ESE 26.5 mph 33.4 mph N/A   Scattered Clouds
1:15 PM 86.7 °F 85.1 °F 55.6 °F 34% 30.03 in 10.0 mi ESE 24.2 mph 31.1 mph N/A   Clear
1:35 PM 89.1 °F 88.0 °F 58.3 °F 35% 30.01 in 10.0 mi SE 25.3 mph 32.2 mph N/A   Clear
1:55 PM 87.6 °F 87.7 °F 61.5 °F 41% 30.01 in 10.0 mi SE 24.2 mph 29.9 mph N/A   Clear
2:15 PM 88.7 °F 87.3 °F 56.8 °F 34% 30.00 in 10.0 mi ESE 20.7 mph 28.8 mph N/A   Clear
2:35 PM 90.0 °F - 52.7 °F 28% 30.00 in 10.0 mi ESE 20.7 mph 28.8 mph N/A   Clear
2:55 PM 90.0 °F 87.7 °F 53.6 °F 29% 29.99 in 10.0 mi ESE 21.9 mph 29.9 mph N/A   Clear
3:15 PM 90.9 °F - 52.7 °F 27% 29.99 in 10.0 mi SSE 20.7 mph 31.1 mph N/A   Clear
3:35 PM 89.1 °F - 51.8 °F 28% 29.98 in 10.0 mi SE 18.4 mph 24.2 mph N/A   Clear
3:55 PM 87.8 °F - 50.5 °F 28% 29.97 in 10.0 mi ESE 17.3 mph 21.9 mph N/A   Clear
4:15 PM 86.7 °F 85.3 °F 56.3 °F 35% 29.97 in 10.0 mi SE 15.0 mph - N/A   Scattered Clouds
4:35 PM 85.8 °F 84.8 °F 57.4 °F 38% 29.97 in 10.0 mi SE 15.0 mph 19.6 mph N/A   Clear
4:55 PM 85.1 °F 84.8 °F 59.9 °F 42% 29.97 in 10.0 mi SE 12.7 mph 19.6 mph N/A   Clear
5:15 PM 84.4 °F 84.6 °F 61.0 °F 45% 29.97 in 10.0 mi SE 15.0 mph - N/A   Clear
5:35 PM 83.7 °F 84.1 °F 61.7 °F 47% 29.96 in 10.0 mi ESE 17.3 mph 24.2 mph N/A   Clear
5:55 PM 82.9 °F 83.8 °F 62.6 °F 50% 29.96 in 10.0 mi ESE 19.6 mph 23.0 mph N/A   Clear
6:15 PM 82.0 °F 83.3 °F 63.1 °F 53% 29.94 in 10.0 mi ESE 23.0 mph - N/A   Clear
6:35 PM 81.5 °F 82.8 °F 63.5 °F 54% 29.93 in 10.0 mi ESE 18.4 mph 24.2 mph N/A   Clear
6:55 PM 81.3 °F 82.9 °F 64.4 °F 56% 29.96 in 10.0 mi ESE 21.9 mph 28.8 mph N/A   Clear
7:15 PM 80.8 °F 82.4 °F 64.4 °F 57% 29.94 in 10.0 mi East 20.7 mph 29.9 mph N/A   Clear
7:35 PM 80.6 °F 82.4 °F 64.9 °F 59% 29.94 in 10.0 mi East 21.9 mph 28.8 mph N/A   Clear
7:55 PM 80.1 °F 82.0 °F 65.7 °F 61% 29.94 in 10.0 mi East 21.9 mph 29.9 mph N/A   Clear
8:15 PM 79.3 °F - 64.9 °F 61% 29.96 in 10.0 mi East 23.0 mph 32.2 mph N/A   Clear
8:35 PM 79.0 °F - 63.3 °F 59% 29.97 in 10.0 mi East 20.7 mph 28.8 mph N/A   Clear
8:55 PM 78.8 °F - 63.5 °F 59% 29.97 in 10.0 mi East 18.4 mph 28.8 mph N/A   Clear
9:15 PM 77.7 °F - 64.6 °F 64% 29.98 in 10.0 mi East 21.9 mph 31.1 mph N/A   Clear
9:35 PM 77.0 °F - 64.6 °F 65% 29.99 in 10.0 mi East 19.6 mph 27.6 mph N/A   Clear
9:55 PM 77.0 °F - 64.4 °F 65% 30.01 in 10.0 mi ESE 17.3 mph 25.3 mph N/A   Clear
10:15 PM 76.5 °F - 63.9 °F 65% 30.03 in 10.0 mi ESE 16.1 mph - N/A   Clear
10:35 PM 76.3 °F - 63.9 °F 65% 30.05 in 10.0 mi ESE 17.3 mph 25.3 mph N/A   Clear
10:55 PM 76.1 °F - 63.9 °F 66% 30.07 in 10.0 mi ESE 17.3 mph 21.9 mph N/A   Clear
11:15 PM 75.7 °F - 63.7 °F 66% 30.08 in 10.0 mi ESE 16.1 mph - N/A   Clear
11:35 PM 75.4 °F - 63.9 °F 67% 30.08 in 10.0 mi ESE 13.8 mph - N/A   Clear
11:55 PM 75.2 °F - 64.4 °F 69% 30.07 in 10.0 mi ESE 15.0 mph 20.7 mph N/A   Clear